Location: Cudham
(51.3000°N, 0.0667°E)
Time: 15:06:55
(UTC+00:00)

Cosmos 1570 Rocket - Pass Details

Date: 19 May 2025
Orbit: 759 x 785 km, 74.1° (Epoch: 18 June)

Event Time Altitude Azimuth Distance (km) Brightness Sun altitude
Exits shadow 21:19:34 - 193° (SSW) 3,127 6.8 -10.9°
Reaches altitude 10° 21:21:42 10° 190° (S) 2,298 6.1 -11.1°
Maximum altitude 21:26:52 65° 109° (ESE) 847 4.0 -11.6°
Drops below altitude 10° 21:32:06 10° 29° (NNE) 2,332 6.9 -12.0°
Sets 21:34:31 0° 27° (NNE) 3,267 7.7 -12.3°
